Powrót do katalogu

CZ-6A DEB

AktywnyPO
NORAD 54939·DEBRIS·🇨🇳 China

Wystrzelony Nov 11, 2022 z Taiyuan Satellite Launch Center

Loading…

Następne Przeloty (najbliższe 24 godziny)

TLE

ŚwieżeSource: Space-Track

Epoka: Sep 14, 2026, 05:08 UTC

1 54939U 22151SC  26257.21429854  .00002921  00000-0  90724-3 0  9997
2 54939  99.0595 355.3101 0068880 201.8826 157.9415 14.40536161200267

Śledź CZ-6A DEB w czasie rzeczywistym z AllMySat

Download on the App Store